Regional Weather Roundup
Issued by NWS

Home | Current Version | Previous Version | Graphics & Text | Print | Product List | Glossary Off
Versions: 1 2 3 4 5 6 7 8 9 10 11 12 13 14 15 16 17 18 19 20 21 22 23 24 25 26 27 28 29 30 31 32 33 34 35 36 37 38 39 40 41 42 43 44 45 46 47 48 49 50

000
ASUS43 KDTX 251810
RWRMI
MICHIGAN HOURLY REGIONAL WEATHER ROUNDUP
NATIONAL WEATHER SERVICE DETROIT/PONTIAC MI
ISSUED BY NATIONAL WEATHER SERVICE GRAND RAPIDS MI
200 PM EDT THU MAY 25 2017

NOTE: "FAIR" INDICATES FEW OR NO CLOUDS BELOW 12,000 FEET WITH NO
SIGNIFICANT WEATHER AND/OR OBSTRUCTION TO VISIBILITY.

MIZ047>049-052>055-059>063-066>070-074>076-081>083-251900-
SOUTHEAST LOWER MICHIGAN

CITY           SKY/WX    TMP DP  RH WIND       PRES   REMARKS
ADRIAN         CLOUDY    61  58  90 N9        29.50S
6HR MIN TEMP:  58; 6HR MAX TEMP:  62;

ALMA           CLOUDY    60  57  88 N9G22     29.56S
ANN ARBOR      CLOUDY    61  58  90 NW8       29.49S
BAD AXE        CLOUDY    56  56  99 E5        29.53S FOG
6HR MIN TEMP:  53; 6HR MAX TEMP:  56;

DETROIT CITY   LGT RAIN  60  59  96 NE5       29.48S FOG
6HR MIN TEMP:  57; 6HR MAX TEMP:  60; 6HR PCP:  0.63;

DETROIT        LGT RAIN  62  60  93 N7        29.48R
6HR MIN TEMP:  58; 6HR MAX TEMP:  62; 6HR PCP:  0.44;

FLINT          CLOUDY    58  56  93 N12       29.51S
6HR MIN TEMP:  56; 6HR MAX TEMP:  58;

GROSSE ILE     RAIN      60  58  92 N6        29.47S
6HR MIN TEMP:  58; 6HR MAX TEMP:  60; 6HR PCP:  0.07;

HILLSDALE      CLOUDY    59  54  82 N10       29.52R
HOWELL         CLOUDY    58  55  88 N8        29.51S
6HR MIN TEMP:  56; 6HR MAX TEMP:  59;


CITY           SKY/WX    TMP DP  RH WIND       PRES   REMARKS
JACKSON        CLOUDY    61  57  87 N10       29.52S
6HR MIN TEMP:  57; 6HR MAX TEMP:  61; 6HR PCP:  0.01;

LANSING        CLOUDY    60  54  80 N8        29.55S
6HR MIN TEMP:  57; 6HR MAX TEMP:  61;

MASON          CLOUDY    60  57  92 N9        29.53S
MONROE         LGT RAIN  61  59  91 N6        29.48R
6HR MIN TEMP:  58; 6HR MAX TEMP:  61; 6HR PCP:  0.16;

MT. CLEMENS    LGT RAIN  59  59 100 E6        29.47S FOG
6HR MIN TEMP:  58; 6HR MAX TEMP:  60; 6HR PCP:  0.15;

PONTIAC        CLOUDY    60  56  86 N9        29.49R
6HR MIN TEMP:  57; 6HR MAX TEMP:  60; 6HR PCP: TRACE;

PORT HOPE        N/A     50  49  96 E10       29.52S
6HR MIN TEMP:  50; 6HR MAX TEMP:  51; 6HR PCP:  0.05;

PORT HURON     CLOUDY    59  55  88 E3        29.49S
TRI CITIES     CLOUDY    58  56  93 N12       29.55S FOG
6HR MIN TEMP:  54; 6HR MAX TEMP:  58; 6HR PCP: TRACE;

YPSILANTI      CLOUDY    63  59  87 NW10      29.49R
6HR MIN TEMP:  59; 6HR MAX TEMP:  64; 6HR PCP:  0.41;

$$
MIZ043>046-050>051-056>058-064>065-071>073-077>080-251900-
SOUTHWEST LOWER MICHIGAN

CITY           SKY/WX    TMP DP  RH WIND       PRES   REMARKS
BATTLE CREEK   CLOUDY    62  57  83 N8        29.55S
6HR MIN TEMP:  57; 6HR MAX TEMP:  60; 6HR PCP: TRACE;

BENTON HARBOR  CLOUDY    55  50  83 VRB6      29.60R
6HR MIN TEMP:  53; 6HR MAX TEMP:  57;

BIG RAPIDS     CLOUDY    60  53  78 N10       29.57F
6HR MIN TEMP:  54; 6HR MAX TEMP:  60;

COLDWATER      CLOUDY    60  58  95 N10       29.54S
6HR MIN TEMP:  57; 6HR MAX TEMP:  60;

HOLLAND        CLOUDY    64  55  72 N7        29.57S
6HR MIN TEMP:  58; 6HR MAX TEMP:  65;

GRAND RAPIDS   CLOUDY    62  56  80 NE9       29.56S
6HR MIN TEMP:  56; 6HR MAX TEMP:  63; 6HR PCP: TRACE;

KALAMAZOO      CLOUDY    62  55  77 N10       29.56S
6HR MIN TEMP:  57; 6HR MAX TEMP:  62;

MARSHALL       CLOUDY    61  59  93 N5        29.53F
6HR MIN TEMP:  56; 6HR MAX TEMP:  61; 6HR PCP:  0.01;

MOUNT PLEASANT CLOUDY    59  55  84 N9        29.56S
6HR MIN TEMP:  54; 6HR MAX TEMP:  61;

MUSKEGON       PTSUNNY   66  55  67 N12       29.58S
6HR MIN TEMP:  58; 6HR MAX TEMP:  69; 6HR PCP: TRACE;

STURGIS        CLOUDY    59  56  92 N8        29.54S
6HR MIN TEMP:  57; 6HR MAX TEMP:  59; 6HR PCP:  0.01;

$$
MIZ016>042-251900-
NORTHERN LOWER MICHIGAN

CITY           SKY/WX    TMP DP  RH WIND       PRES   REMARKS
ALPENA         LGT RAIN  53  53 100 NE14      29.61R FOG
6HR MIN TEMP:  53; 6HR MAX TEMP:  55; 6HR PCP:  0.05;

BEAVER ISLAND  CLOUDY    59  54  81 NE6       29.67F
6HR MIN TEMP:  54; 6HR MAX TEMP:  62;

BELLAIRE       CLOUDY    58  54  85 NE13      29.63S
6HR MIN TEMP:  53; 6HR MAX TEMP:  58;

CADILLAC       CLOUDY    58  54  86 N8        29.60S
CHARLEVOIX     CLOUDY    53  51  95 N8        29.68S
6HR MIN TEMP:  53; 6HR MAX TEMP:  59;

GAYLORD        CLOUDY    56  52  86 NE12G18   29.62S FOG
6HR MIN TEMP:  52; 6HR MAX TEMP:  56; 6HR PCP:  0.16;

HOUGHTON LAKE  CLOUDY    57  53  86 N10       29.59S
6HR MIN TEMP:  54; 6HR MAX TEMP:  58; 6HR PCP:  0.01;

MANISTEE       CLOUDY    64  54  69 NE9       29.60S
OSCODA         LGT RAIN  51  50  97 N5        29.56F
6HR MIN TEMP:  50; 6HR MAX TEMP:  52; 6HR PCP:  0.01;

PELLSTON       LGT RAIN  59  53  80 NE14      29.65S
6HR MIN TEMP:  56; 6HR MAX TEMP:  60; 6HR PCP:  0.04;

TRAVERSE CITY  CLOUDY    56  53  90 N7        29.62S FOG
6HR MIN TEMP:  51; 6HR MAX TEMP:  57; 6HR PCP:  0.03;

LUDINGTON      CLOUDY    63  55  73 N10       29.60R
6HR MIN TEMP:  55; 6HR MAX TEMP:  66;

$$
MIZ007>008-015-251900-
EASTERN UPPER MICHIGAN

CITY           SKY/WX    TMP DP  RH WIND       PRES   REMARKS
KINROSS        CLOUDY    62  54  74 NE14      29.66F
6HR MIN TEMP:  55; 6HR MAX TEMP:  64; 6HR PCP: TRACE;

MACKINAC ISLAN CLOUDY    58  55  89 E8G16     29.65S
6HR MIN TEMP:  53; 6HR MAX TEMP:  61; 6HR PCP:  0.11;

NEWBERRY       CLOUDY    64  52  65 E13       29.68F
6HR MIN TEMP:  48; 6HR MAX TEMP:  65;

S. S. MARIE    CLOUDY    65  52  62 NE13G21   29.66F
6HR MIN TEMP:  56; 6HR MAX TEMP:  67; 6HR PCP:  0.02;

$$
MIZ004>006-011>014-085-251900-
CENTRAL UPPER MICHIGAN

CITY           SKY/WX    TMP DP  RH WIND       PRES   REMARKS
MANISTIQUE     CLOUDY    66  49  55 N16G23    29.67F
6HR MIN TEMP:  50; 6HR MAX TEMP:  66;

ESCANABA       CLOUDY    66  52  60 E8        29.68F
6HR MIN TEMP:  50; 6HR MAX TEMP:  68;

MENOMINEE      SUNNY     62  51  67 E12       29.69F
6HR MIN TEMP:  52; 6HR MAX TEMP:  63;

SAWYER-GWINN   SUNNY     61  48  63 NE12      29.73F
$$
MIZ001>003-009>011-084-251900-
WESTERN UPPER MICHIGAN

CITY           SKY/WX    TMP DP  RH WIND       PRES   REMARKS
IRON MOUNTAIN  CLOUDY    68  46  45 NE10      29.68F
6HR MIN TEMP:  49; 6HR MAX TEMP:  69;

HOUGHTON       SUNNY     63  47  55 E12       29.73S
6HR MIN TEMP:  53; 6HR MAX TEMP:  65;

COPPER HARBOR    N/A     47  41  80 CALM      29.76S
6HR MIN TEMP:  44; 6HR MAX TEMP:  49;

IRONWOOD       CLOUDY    64  47  53 NE8       29.71F
6HR MIN TEMP:  48; 6HR MAX TEMP:  65;

$$

ABBREVIATIONS USED IN REMARKS
   TC - TEMPERATURE IN CELSIUS
  WCI - WIND CHILL INDEX
   HX - HEAT INDEX
  VSB - VISIBILITY




USA.gov is the U.S. government's official web portal to all federal, state and local government web resources and services.